Regional Weather Roundup
Issued by NWS Sioux Falls, SD

Home | Current Version | Previous Version | Graphics & Text | Print | Product List | Glossary Off
Versions: 1 2 3 4 5 6 7 8 9 10 11 12 13 14 15 16 17 18 19 20 21 22 23 24 25 26 27 28 29 30 31 32 33 34 35 36 37 38 39 40 41 42 43 44 45 46 47 48 49 50

000
ASUS43 KFSD 220010
RWRFSD

WEATHER ROUNDUP FOR SE SOUTH DAKOTA/SW MINNESOTA/NW IOWA
NATIONAL WEATHER SERVICE SIOUX FALLS SD
700 PM CDT SUN SEP 21 2014

NOTE: "FAIR" INDICATES FEW OR NO CLOUDS BELOW 12,000 FEET WITH NO
SIGNIFICANT WEATHER AND OR OBSTRUCTIONS TO VISIBILITY.


SDZ038>040-050-052>070-220100-
SOUTHEAST SOUTH DAKOTA

CITY           SKY/WX    TMP DP  RH WIND       PRES   REMARKS
CHAMBERLAIN    CLEAR     70  42  36 CALM      30.24S
6HR MIN TEMP:  69; 6HR MAX TEMP:  73;

HURON          CLEAR     67  46  47 N6        30.23S
6HR MIN TEMP:  67; 6HR MAX TEMP:  73;

MADISON        FAIR      63  46  55 N6        30.25R
MITCHELL       CLEAR     67  48  50 N6        30.24S
6HR MIN TEMP:  67; 6HR MAX TEMP:  73;

SIOUX FALLS    PTCLDY    64  47  53 N6        30.23R
6HR MIN TEMP:  64; 6HR MAX TEMP:  72;

WINNER         FAIR      71  40  32 N5        30.25S
YANKTON        CLEAR     64  46  52 N7        30.24R
$$

MNZ071-072-080-081-089-090-097-098-220100-
SOUTHWEST MINNESOTA

CITY           SKY/WX    TMP DP  RH WIND       PRES   REMARKS
FAIRMONT       PTCLDY    63  46  55 N7        30.21R
JACKSON        CLEAR     61  46  59 N5        30.23R
LUVERNE        PTCLDY    66  45  45 N6        30.24R
MARSHALL       CLEAR     63  46  55 N7        30.22S
6HR MIN TEMP:  63; 6HR MAX TEMP:  68;

MONTEVIDEO     CLEAR     63  50  63 NE7       30.23S
PIPESTONE      CLEAR     64  45  48 NE6       30.24R
REDWOOD FALLS  CLEAR     62  50  64 N7        30.21S
TRACY          CLEAR     62  48  60 CALM      30.23S
WINDOM         CLEAR     61  48  63 N8        30.22S
WORTHINGTON    CLEAR     63  45  51 N9        30.23S
$$

IAZ001>003-012>014-020>022-031-032-NEZ013-014-SDZ071-220100-
NORTHWEST IOWA

CITY           SKY/WX    TMP DP  RH WIND       PRES   REMARKS
CHEROKEE       CLEAR     65  48  52 N6        30.22R
DENISON        CLEAR     64  48  55 N7G14     30.19S
ESTHERVILLE    CLEAR     61  48  62 N9        30.21R
LE MARS        CLEAR     66  48  52 NW6       30.23R
ORANGE CITY    CLEAR     68  45  42 N3        30.23R
SHELDON        CLEAR     63  48  59 N5        30.21S
SIOUX CITY     CLEAR     68  48  48 N7        30.22R
6HR MIN TEMP:  68; 6HR MAX TEMP:  73;

SPENCER        CLEAR     64  48  56 N8        30.22R
6HR MIN TEMP:  64; 6HR MAX TEMP:  69;

$$

ABBREVIATIONS USED IN REMARKS
   TC - TEMPERATURE IN CELSIUS
  WCI - WIND CHILL INDEX
   HX - HEAT INDEX
  VSB - VISIBILITY



USA.gov is the U.S. government's official web portal to all federal, state and local government web resources and services.